Theta_e
306 306 306 307 307 308 309 311 312 311 312 312 308 308 309 300 294 291 305 313 314 317 320 322 323 325 325 326 328 331 332 332 332 332 332 333 333 333 333 332 332 330 330 331 333 334 336 338 340 342 344 345 346 347 348 349 350 350 351 350 350 350 350 350 350 351 352 353 354 355 357 356 355 354 353 354 354 354 355 355 354 355 355 354 355 355 356
304 306 307 308 304 306 307 309 312 314 314 313 314 313 313 310 310 313 315 315 315 318 320 322 324 326 327 327 330 331 331 330 331 331 331 333 333 332 333 334 335 335 333 333 333 335 336 337 339 341 343 344 345 346 347 349 350 351 351 350 350 349 349 349 351 351 351 352 352 353 354 354 354 354 353 353 352 352 352 354 354 356 355 355 354 354 354
299 304 307 307 305 303 304 307 309 312 314 315 315 315 316 317 316 317 316 315 314 320 323 323 325 326 328 328 328 328 329 330 331 330 331 332 332 333 334 334 335 336 335 335 336 336 336 337 338 340 342 344 346 347 347 348 349 351 352 350 350 349 349 350 350 351 350 351 351 351 352 353 353 353 353 353 353 352 352 352 353 354 356 353 352 353 353
297 302 302 303 303 303 305 306 307 309 311 310 313 313 315 313 312 315 315 313 313 320 325 325 325 325 324 324 326 327 328 330 330 329 330 331 331 333 333 334 335 335 335 335 336 336 337 337 338 339 340 342 344 345 346 348 349 351 351 350 349 349 350 350 350 350 350 350 350 350 350 351 352 352 352 351 351 351 351 350 352 353 353 352 352 352 353
292 301 303 300 299 298 300 302 305 309 311 314 315 316 318 316 317 313 310 312 319 322 325 323 323 324 324 325 325 326 327 328 329 329 329 330 331 331 333 333 335 335 336 336 337 338 338 338 338 339 340 341 342 343 344 345 347 347 346 346 347 347 347 348 348 348 349 349 349 348 349 349 350 350 350 349 348 348 348 350 350 351 351 351 351 352 352
290 298 299 300 296 292 294 308 311 311 310 311 309 309 312 317 319 315 319 319 323 324 323 322 322 323 324 325 328 330 328 327 327 329 330 331 332 332 333 334 335 336 336 337 337 338 339 341 342 341 343 342 342 343 344 343 342 342 343 343 344 342 343 344 345 346 346 347 347 347 348 349 349 350 349 348 348 348 349 350 349 348 349 350 350 351 350
291 294 295 292 287 289 303 306 310 313 310 311 311 311 313 313 317 321 320 322 322 323 324 324 324 325 326 327 327 328 330 330 329 328 329 330 331 331 332 333 334 334 335 335 336 337 337 339 341 341 342 343 343 342 342 340 340 341 342 341 341 341 341 340 341 343 346 346 346 346 346 348 348 349 349 349 348 348 349 350 349 349 349 349 349 351 350
293 290 291 286 287 297 303 303 305 309 307 306 307 308 311 314 315 317 318 321 323 323 323 324 324 324 326 327 328 329 330 331 329 329 328 329 330 330 332 333 332 332 333 335 336 336 339 339 340 340 340 342 341 340 341 340 340 340 340 339 338 339 340 340 340 341 340 342 345 345 345 347 348 348 348 347 347 346 348 347 349 350 349 350 348 347 346
290 291 290 293 296 298 300 301 303 303 302 302 302 299 306 311 316 317 317 322 323 323 322 323 321 322 324 322 323 329 329 330 331 330 329 329 329 330 330 331 331 332 333 334 336 337 337 338 339 339 340 341 340 339 338 338 339 339 338 337 337 340 342 341 342 342 342 342 341 342 341 340 340 341 341 343 344 346 345 347 348 347 345 341 340 340 341
295 292 289 290 288 287 292 299 304 307 308 308 307 303 300 307 313 320 321 321 322 322 322 319 317 318 318 315 318 325 328 330 329 330 329 329 329 329 329 331 331 332 332 334 336 337 337 337 338 339 340 340 338 337 336 336 336 336 335 336 338 339 340 342 343 342 341 341 341 340 339 340 340 341 342 342 342 346 345 347 347 345 343 339 338 339 337
294 292 289 286 285 289 294 299 304 308 309 309 306 297 294 302 309 316 320 320 319 319 316 315 313 312 312 314 318 324 326 327 327 327 327 326 327 328 329 328 328 329 329 331 331 333 334 333 335 337 337 336 335 335 335 335 336 334 335 337 338 338 340 342 344 343 342 341 341 340 340 340 341 341 341 341 342 341 340 343 344 343 342 339 336 337 339
292 290 288 289 291 293 300 301 304 309 309 308 300 290 290 298 310 317 319 318 318 317 316 316 316 314 313 315 319 325 324 323 323 323 323 324 324 325 328 328 328 328 329 328 328 328 329 330 334 335 336 335 334 333 333 334 333 333 334 335 337 339 341 342 344 343 343 343 341 341 340 340 342 341 342 342 341 341 341 342 342 343 342 339 337 336 336
295 296 290 291 295 302 305 305 309 309 310 300 291 286 295 304 314 319 319 318 318 318 317 317 315 319 322 322 324 324 322 321 321 322 323 323 324 324 324 325 328 326 327 327 326 327 328 331 333 333 333 332 331 331 330 330 330 331 333 335 337 338 339 341 342 342 342 342 342 341 341 341 342 342 342 340 340 340 340 342 341 340 339 337 335 334 334
290 288 289 290 293 299 306 309 309 309 301 292 288 297 302 313 318 320 321 319 320 320 320 321 321 321 323 324 322 319 318 318 318 320 321 322 322 323 325 327 326 324 325 325 326 326 328 330 331 331 331 329 328 328 327 325 327 329 330 331 333 334 335 336 337 338 340 341 342 342 342 341 339 340 340 341 341 341 341 339 337 336 335 334 334 334 333
289 287 288 288 287 298 308 308 307 308 299 296 298 307 316 320 320 320 321 321 322 322 319 321 321 322 322 321 319 317 316 316 316 317 318 319 319 320 321 323 325 325 323 323 324 325 327 328 329 330 329 327 327 326 325 326 328 329 329 329 330 331 332 332 334 335 336 339 341 342 342 341 339 337 338 339 340 341 338 336 334 331 331 332 331 328 328
285 281 285 286 293 300 306 307 300 305 305 309 308 314 316 319 319 320 320 320 322 322 320 319 319 320 319 318 316 315 314 315 316 318 319 319 320 320 322 323 324 324 322 322 322 323 324 325 326 327 328 327 327 326 325 329 330 330 328 327 328 329 331 330 330 332 335 335 336 336 337 336 336 334 335 338 339 339 337 333 330 330 331 332 329 327 326
290 288 288 295 298 303 306 308 308 310 312 312 312 316 316 317 317 316 319 318 320 321 319 318 317 316 317 316 316 314 313 314 315 315 316 317 318 319 320 322 324 322 321 320 321 321 323 323 324 324 325 326 326 324 326 329 329 330 330 329 327 326 326 328 330 331 332 333 333 333 333 334 334 335 335 336 334 333 331 330 330 329 330 331 329 327 325
300 300 301 306 305 306 308 310 310 312 313 315 316 317 317 315 316 317 318 318 318 318 318 316 315 315 315 314 314 314 314 313 314 317 316 317 318 319 320 321 321 320 319 320 320 320 321 322 322 324 322 323 322 323 325 327 327 328 329 330 330 329 329 330 330 330 327 326 326 327 328 329 330 331 334 334 332 331 331 331 331 331 331 330 328 326 323
292 293 300 303 305 306 307 309 313 314 315 315 315 316 315 317 319 319 320 319 319 318 318 317 315 314 315 314 313 313 313 312 312 313 313 314 315 317 317 320 320 317 318 318 319 319 318 319 320 320 320 321 322 324 324 324 326 327 327 327 328 327 328 329 330 329 327 325 322 321 321 322 322 326 328 330 333 332 332 331 331 333 331 329 327 325 321
292 296 301 304 306 307 308 307 310 313 315 317 318 317 318 318 319 319 320 321 319 319 317 317 316 315 315 315 313 314 313 312 312 311 312 313 316 316 316 317 317 316 316 317 318 318 318 318 319 320 320 320 321 321 322 324 327 328 330 327 322 323 325 329 330 329 329 328 321 317 316 315 314 316 318 322 322 321 322 325 330 330 330 330 327 324 319
301 302 304 305 305 307 307 309 308 309 312 315 316 317 319 319 320 320 320 321 320 319 318 318 318 316 315 315 315 315 313 314 313 312 311 312 314 316 316 317 318 316 318 317 317 318 318 317 318 319 320 321 321 321 321 324 326 327 328 331 327 323 323 324 326 326 320 320 318 315 314 312 310 308 310 313 317 318 317 315 318 325 332 331 327 322 320
296 298 302 304 301 299 304 309 309 310 312 314 314 315 316 317 318 319 319 320 321 320 319 319 318 316 315 315 315 314 313 313 313 313 313 313 315 316 317 318 318 319 319 318 319 319 318 318 320 320 320 321 322 322 322 322 325 327 328 327 324 324 324 323 322 322 320 318 318 317 315 314 313 310 307 301 305 313 313 312 306 304 314 326 323 320 318
297 301 304 304 301 303 305 308 310 310 311 314 314 313 313 314 316 319 319 318 318 319 319 320 319 317 316 316 317 316 315 314 313 313 313 314 315 315 316 317 317 318 319 321 320 320 319 321 321 321 321 320 321 322 321 322 323 323 324 325 323 323 327 326 324 322 319 316 316 315 315 316 317 316 314 311 298 298 305 305 300 296 297 300 306 312 319
300 303 307 306 307 307 307 309 309 310 311 313 310 310 311 313 315 317 318 318 318 317 319 320 320 319 318 317 318 316 316 315 314 314 314 314 315 316 316 316 318 318 319 319 319 319 318 319 318 319 320 319 320 321 321 322 322 322 321 322 321 323 325 326 325 323 320 320 319 317 315 316 316 317 316 315 314 302 297 300 299 295 295 295 296 300 305
304 305 308 306 307 309 309 309 309 311 313 313 312 311 312 313 314 316 316 315 317 318 317 317 318 319 318 317 317 317 318 319 320 319 321 321 319 317 317 317 317 318 318 317 316 316 317 318 320 320 319 319 319 320 321 321 323 323 322 322 320 321 327 330 329 327 324 322 320 318 318 318 317 317 315 316 315 314 311 298 295 295 294 294 294 294 295
306 309 309 309 310 309 309 310 310 311 312 314 314 314 317 318 315 314 312 313 313 315 316 317 318 317 318 317 316 317 320 321 324 322 318 318 318 318 317 318 318 318 316 316 316 316 317 318 317 318 319 318 318 320 320 320 320 321 320 319 319 322 323 327 325 325 324 322 321 320 318 317 317 318 319 317 316 317 315 316 316 307 300 295 295 296 293
310 312 311 309 308 307 309 310 309 310 311 314 315 314 314 315 316 311 310 311 311 313 314 315 316 317 319 321 323 321 320 320 319 318 318 320 320 319 319 318 318 319 319 317 317 319 323 323 320 318 318 318 316 319 319 319 320 318 318 319 319 329 331 329 321 322 321 322 322 320 320 323 324 323 321 320 320 319 318 317 316 315 315 315 302 294 302
311 312 314 308 305 308 308 307 310 311 312 311 310 309 308 308 308 308 309 309 309 310 310 311 313 314 313 314 315 314 315 315 315 316 317 317 319 320 319 320 319 320 321 322 319 323 324 319 318 318 317 315 316 318 319 317 318 319 319 317 318 319 319 323 321 320 320 320 321 324 324 323 324 325 324 323 322 320 319 320 319 317 316 313 313 306 297
310 309 307 309 311 310 308 308 309 310 308 307 308 306 307 306 305 305 305 306 306 307 308 308 311 312 311 311 312 311 311 312 314 315 316 317 318 318 317 318 317 318 318 320 316 316 315 315 315 316 316 314 316 319 318 317 317 318 320 317 316 317 318 319 319 318 319 319 320 322 325 325 325 328 327 326 324 321 321 321 320 319 316 314 314 315 313
307 306 309 308 309 309 309 308 308 307 306 304 305 305 307 306 304 303 303 303 305 305 305 306 308 309 311 311 310 311 310 310 311 313 316 317 316 314 314 316 316 316 316 317 315 315 315 314 315 315 317 315 317 317 318 317 317 317 318 317 316 316 317 319 319 319 318 320 324 325 324 323 322 324 326 326 327 324 322 322 320 318 315 314 316 314 314
305 307 308 308 308 309 309 306 306 306 304 302 304 304 304 305 304 302 302 302 304 303 304 305 306 306 308 309 308 308 308 307 308 310 312 313 313 313 314 314 317 317 317 317 315 315 316 316 314 315 316 315 316 318 317 316 316 316 316 316 316 320 322 322 320 317 319 323 321 320 322 319 321 324 323 320 323 324 323 323 323 319 316 315 316 315 315
306 305 306 306 307 306 303 303 304 304 302 301 303 304 304 304 302 302 302 302 303 303 303 303 304 305 305 305 306 306 305 305 305 306 305 306 307 310 312 315 320 322 315 316 318 318 317 316 317 318 317 317 317 317 317 317 316 316 315 323 320 317 320 324 323 322 323 324 323 322 324 320 318 321 321 323 321 320 320 323 322 320 318 316 316 317 317
305 303 302 302 304 303 302 301 304 303 301 301 303 304 304 304 304 304 302 303 303 303 303 303 304 304 304 303 304 304 304 304 304 304 304 304 305 305 306 312 310 311 313 313 314 313 316 317 318 317 317 318 317 318 317 316 316 316 315 317 317 316 323 321 320 322 324 324 320 319 320 323 320 320 319 321 321 319 318 319 321 322 320 318 317 317 317
308 308 308 307 307 305 303 301 302 303 302 302 301 301 301 302 303 302 302 304 303 303 303 303 303 303 303 303 303 303 304 306 306 305 303 303 304 305 305 309 311 310 310 309 310 311 313 314 314 315 314 316 317 318 317 316 316 317 316 315 315 314 318 319 318 320 320 323 321 323 322 322 320 318 321 322 320 317 319 320 320 319 317 314 312 312 308
312 310 310 308 308 309 307 304 301 302 301 301 300 300 301 302 302 302 305 304 303 303 303 304 304 303 303 303 303 303 304 304 304 304 304 305 305 304 304 309 309 309 308 308 307 309 310 310 311 313 315 316 317 318 319 318 317 317 316 317 318 317 317 320 318 317 318 319 320 317 317 317 318 321 322 321 319 319 319 319 319 317 314 312 310 310 309
308 306 306 305 305 306 304 303 303 303 303 302 302 302 302 302 302 305 307 303 303 304 304 303 303 303 303 303 303 303 303 303 303 303 304 305 304 303 306 308 307 307 309 308 309 307 308 308 318 325 321 318 318 315 318 317 317 317 319 319 320 321 321 320 319 319 319 317 316 317 316 318 320 320 321 319 318 318 318 318 318 317 313 311 310 309 309
309 308 306 305 304 304 302 303 303 303 302 302 302 303 303 303 304 305 305 303 304 303 303 304 304 304 303 303 303 303 303 303 304 304 304 304 303 304 305 306 307 309 310 307 309 308 309 311 322 325 321 318 317 313 318 322 316 315 319 317 318 319 318 317 318 317 316 317 316 316 317 317 316 316 318 317 315 315 316 316 317 315 312 311 310 310 308
308 308 307 305 304 303 302 303 304 304 303 304 305 307 305 304 304 304 304 304 304 303 303 303 303 304 304 304 303 304 304 303 303 303 303 303 303 305 305 306 307 307 308 310 311 309 310 318 319 314 310 311 310 310 316 325 323 315 313 314 317 318 318 318 316 317 317 315 317 315 315 315 315 316 316 315 313 312 313 314 315 314 312 311 310 309 308
307 306 307 305 304 304 303 303 304 303 304 304 304 305 307 305 305 303 303 303 303 305 304 303 303 303 303 303 303 303 304 304 305 303 303 304 307 306 307 307 306 307 311 310 309 308 313 318 313 310 310 309 309 309 312 320 324 311 310 312 314 316 317 317 316 316 316 316 315 314 314 313 315 315 314 314 312 313 314 313 314 313 311 309 309 308 307
307 307 306 305 303 303 303 303 303 303 304 305 305 305 305 305 303 303 303 303 304 307 303 302 303 303 302 302 302 302 303 303 303 302 303 303 303 303 303 302 302 303 306 314 311 310 317 317 310 305 308 308 309 309 314 317 319 310 309 310 312 314 314 315 314 314 314 314 313 316 315 314 313 314 314 314 313 313 313 314 312 311 309 309 307 307 308
307 306 305 305 304 304 304 303 303 303 305 305 305 306 305 304 303 303 303 304 304 303 302 302 302 303 302 302 301 301 301 304 304 302 302 302 302 302 303 303 303 303 306 309 311 313 313 312 311 308 307 307 308 314 313 314 310 307 307 308 310 312 313 313 313 313 313 313 313 313 312 312 313 314 313 312 311 311 311 310 310 310 310 308 307 306 306
307 306 306 305 304 304 304 304 304 303 303 303 306 305 304 304 305 304 304 304 302 301 301 302 306 303 301 300 301 303 302 301 301 302 302 305 305 302 302 303 302 302 317 314 309 308 305 304 306 308 308 310 311 314 316 313 308 307 306 307 309 311 312 312 313 312 312 312 310 309 309 309 309 309 310 310 309 310 309 309 309 308 308 308 308 307 307
306 305 305 305 305 304 304 304 304 304 304 304 304 303 303 304 304 303 303 303 303 302 302 304 309 310 306 301 301 301 300 301 301 300 301 302 302 303 304 304 303 305 318 312 308 303 305 305 305 305 311 315 314 315 314 310 307 307 307 308 311 311 311 312 312 312 312 311 310 309 308 309 308 308 308 308 308 308 308 308 307 307 307 306 306 306 307
307 306 306 305 305 305 304 304 304 304 304 303 303 303 303 304 304 304 303 303 302 303 303 303 303 303 303 301 301 301 302 301 302 301 301 303 303 301 303 304 304 309 314 309 308 306 305 304 305 310 314 315 315 313 307 304 305 305 306 307 308 310 310 310 310 311 310 310 310 309 309 309 309 309 308 308 308 308 308 307 306 305 305 304 304 304 304
307 306 306 306 305 305 304 304 304 304 304 303 303 303 303 303 303 303 304 303 303 304 304 301 301 303 302 302 303 303 302 301 302 302 303 303 303 303 304 312 313 312 312 310 306 306 304 306 312 314 313 313 312 308 302 302 302 304 304 306 306 307 309 309 309 309 309 308 309 308 307 308 308 308 308 307 308 306 306 306 306 305 304 304 304 304 304
306 306 307 310 305 305 305 305 305 304 303 303 303 305 304 303 302 303 304 303 304 305 304 303 302 303 301 301 303 302 301 301 300 302 305 304 305 304 306 311 308 314 313 309 307 304 303 310 311 311 311 310 307 301 301 303 303 302 303 303 306 308 307 307 308 307 307 308 308 307 307 307 307 306 307 306 307 307 306 307 306 304 303 303 303 303 302
306 306 306 306 305 305 304 304 305 304 304 303 303 303 304 303 303 303 303 303 304 304 303 303 303 302 302 302 303 303 303 303 304 304 304 303 307 312 313 315 314 313 311 307 306 305 305 306 309 309 308 308 304 300 300 299 300 301 302 303 304 305 306 305 305 303 305 306 309 309 309 307 306 305 306 307 306 306 306 305 302 302 302 303 302 303 302
306 306 306 305 304 304 304 304 304 303 303 304 304 304 304 303 304 303 303 303 303 303 303 302 302 302 301 301 302 304 304 304 302 303 304 305 307 309 310 310 312 313 311 310 308 308 309 309 307 306 306 305 301 299 301 301 302 301 300 302 301 301 301 302 302 303 304 306 306 304 304 304 304 304 306 305 304 304 303 302 301 301 302 302 303 302 302
307 307 306 305 304 304 304 304 304 305 304 305 305 304 304 304 304 303 303 302 302 302 302 301 302 302 303 306 305 303 304 306 305 302 303 305 307 306 308 312 312 311 307 304 301 301 307 308 307 307 306 305 299 299 299 301 303 302 301 299 300 300 300 299 300 300 300 303 303 304 304 303 302 302 303 303 303 302 302 301 301 302 302 302 301 301 302
306 306 305 304 304 304 304 304 304 304 304 305 304 304 305 304 302 302 304 303 302 305 301 301 302 302 301 301 305 306 305 306 305 304 307 306 304 307 310 309 309 311 307 302 302 301 305 306 307 306 305 300 300 302 300 299 299 302 302 304 303 300 302 303 303 304 302 302 302 305 303 303 302 302 303 302 303 303 302 301 302 302 302 302 301 301 301
306 306 305 306 306 306 306 306 305 305 304 305 304 305 306 304 304 305 304 304 303 306 303 303 302 300 300 301 303 304 305 306 308 310 307 306 307 310 310 308 309 311 309 307 303 299 294 292 295 304 303 303 301 303 303 302 301 302 304 301 301 303 303 303 304 303 302 305 304 303 303 303 303 303 302 303 303 302 302 302 301 302 301 300 300 301 302
307 306 305 305 305 305 304 304 305 306 306 305 305 306 305 304 305 305 304 310 304 305 304 301 302 300 299 302 305 304 305 307 309 309 310 309 309 308 310 311 308 309 308 306 299 296 297 300 305 306 306 300 296 298 304 306 305 303 304 304 305 304 305 305 305 304 303 304 304 305 305 303 302 303 303 302 302 302 302 301 301 302 302 302 302 302 302
Wind_Speed
1 11 14 16 11 5 2 6 10 12 9 11 8 3 3 0 2 7 4 4 5 3 5 6 6 6 5 6 5 3 5 6 6 7 7 6 6 4 4 3 2 5 8 7 8 9 10 9 10 10 8 8 6 6 6 7 8 9 9 9 9 9 9 9 9 9 8 7 7 7 7 7 7 7 7 7 6 6 6 6 6 6 6 6 6 6 7
5 9 12 7 13 13 8 10 11 11 11 10 12 12 8 8 8 8 10 10 10 5 5 5 5 5 5 5 4 5 6 6 5 5 5 4 4 4 3 2 3 3 3 4 6 6 7 9 10 9 9 8 9 9 7 5 6 6 7 8 9 9 10 10 9 8 8 7 7 7 7 7 7 7 7 6 6 7 7 7 7 6 6 6 6 7 7
3 1 4 5 7 11 10 9 11 11 10 10 10 9 10 12 11 11 9 10 8 5 5 5 5 5 6 8 9 8 5 4 6 6 5 5 4 3 2 2 2 2 5 6 6 6 7 7 8 8 8 8 7 7 7 7 7 6 7 8 8 9 10 9 8 7 6 7 6 7 8 7 7 7 7 6 6 6 6 6 6 6 5 6 6 6 7
2 4 2 8 6 7 11 13 13 12 8 8 6 6 5 3 6 8 8 7 5 3 5 6 7 8 9 9 9 7 6 6 5 4 3 2 2 3 2 2 3 3 4 6 7 7 7 7 8 8 7 7 8 8 7 8 7 7 7 6 8 8 6 3 4 5 6 6 6 7 6 7 6 6 5 6 6 6 6 6 6 5 6 7 7 6 6
4 6 4 7 10 6 5 7 7 8 8 7 8 11 12 8 4 4 4 4 2 5 5 7 8 9 9 9 8 6 7 7 6 5 4 3 2 1 2 3 2 2 2 4 5 6 6 7 7 7 8 7 7 6 5 4 6 5 5 3 2 1 3 6 6 6 5 5 6 6 6 5 5 4 5 6 6 6 8 7 5 6 7 6 7 6 6
2 8 9 7 1 3 3 4 3 4 10 10 9 5 6 8 6 3 4 6 5 6 6 8 8 9 8 8 8 7 6 6 6 7 6 5 5 3 4 3 2 2 2 1 3 2 3 1 3 4 5 7 7 8 8 8 7 6 7 7 7 5 2 3 1 3 5 5 6 6 6 6 6 6 6 7 7 6 6 5 6 6 6 7 6 7 7
1 0 3 3 3 5 4 1 2 1 1 3 8 6 7 7 8 6 7 7 7 7 7 7 7 8 10 11 10 10 10 8 7 7 7 6 5 5 4 3 3 4 3 3 3 3 1 2 3 3 4 5 6 7 8 9 8 7 5 5 6 8 7 5 2 6 5 4 7 7 7 7 6 7 7 7 6 6 7 8 8 7 7 6 5 5 5
2 4 4 2 1 3 4 3 2 2 1 1 1 3 5 5 4 9 4 6 7 8 7 6 5 7 8 8 10 10 9 9 7 7 7 8 7 7 6 3 4 4 3 1 2 3 2 3 4 3 4 4 6 6 5 7 7 7 7 5 6 7 1 5 7 6 1 10 9 4 5 3 1 2 3 4 5 3 2 1 1 2 2 2 3 1 1
2 3 4 2 3 3 2 1 2 2 1 2 2 2 2 2 2 1 3 5 6 6 5 3 4 3 5 9 9 10 10 9 9 9 9 8 9 8 7 7 6 5 5 5 5 3 4 4 4 4 5 6 7 7 7 7 7 6 7 6 7 4 2 3 3 5 6 3 5 4 3 5 5 5 3 5 7 2 2 2 3 2 2 2 2 3 3
4 6 4 1 2 1 4 2 1 2 1 1 2 1 1 1 2 3 1 5 6 4 1 4 4 1 4 8 6 8 9 9 9 9 9 9 8 7 6 6 6 7 7 6 6 2 5 6 4 3 3 5 8 8 6 5 6 7 6 4 5 6 5 4 3 3 4 7 6 4 3 4 5 5 5 5 3 4 6 2 5 3 3 3 2 2 3
3 3 5 3 4 3 2 2 2 1 0 1 3 2 2 1 1 1 3 2 2 2 1 4 3 3 5 4 4 5 7 7 8 8 8 8 7 6 7 8 8 8 8 8 9 8 7 6 4 4 5 5 5 5 5 5 5 6 6 6 5 4 3 2 4 3 5 6 6 5 5 5 5 4 3 3 2 3 1 6 3 3 4 4 4 4 4
1 4 4 2 3 1 1 3 4 2 1 3 3 1 2 2 2 2 1 2 2 1 2 2 6 4 5 4 2 4 7 7 7 8 8 8 9 9 8 9 8 9 9 11 12 10 10 8 6 5 5 5 5 5 3 3 5 5 4 4 5 5 3 3 4 3 3 4 6 5 5 5 3 5 4 3 3 2 2 2 3 3 2 4 5 5 5
1 4 0 1 2 2 2 3 5 4 1 2 2 1 3 2 1 2 3 3 3 4 2 2 4 4 5 6 5 6 6 7 8 7 7 7 8 9 9 9 8 9 9 10 10 10 9 9 8 7 7 8 7 5 6 6 6 4 2 3 4 6 5 3 2 2 3 4 5 5 7 5 6 7 6 6 5 5 4 4 2 1 3 4 5 6 8
2 1 2 1 2 3 1 3 4 3 1 1 1 1 1 4 5 3 3 4 4 5 5 5 5 5 6 7 7 7 7 6 5 6 6 7 8 7 7 10 8 7 9 10 10 11 9 9 7 6 7 8 6 7 8 8 6 4 4 4 4 6 7 7 6 7 6 5 3 3 4 3 4 5 4 3 3 3 4 4 4 2 4 7 6 6 5
2 3 3 1 1 1 1 3 2 1 1 2 2 3 2 3 5 6 5 5 7 7 8 8 8 7 7 7 6 6 5 6 5 5 7 7 8 8 9 9 9 8 8 10 11 10 9 8 7 6 9 10 8 7 9 5 3 3 4 6 7 8 9 9 9 8 7 6 4 3 3 1 1 2 2 3 3 4 6 5 4 4 4 5 6 7 7
2 2 2 2 2 3 1 0 2 2 2 1 3 3 4 3 3 4 5 6 6 7 9 9 8 7 8 6 6 6 5 5 5 5 6 6 6 7 7 6 7 8 9 8 8 8 7 8 8 8 7 8 8 9 8 4 5 6 7 8 8 9 8 7 7 6 5 4 4 4 5 4 4 3 1 1 2 3 6 6 5 4 3 4 6 6 6
1 2 1 2 4 4 3 1 0 0 1 1 2 4 4 4 3 1 5 7 6 6 8 7 7 6 5 5 4 5 3 5 5 6 5 5 6 6 7 7 6 7 8 9 9 9 8 9 8 8 8 8 9 10 6 5 7 7 7 8 8 8 8 7 6 5 6 6 7 8 8 8 8 6 4 3 4 5 7 6 6 5 4 4 5 5 5
1 2 3 1 2 2 4 2 1 1 2 4 4 4 6 2 2 2 6 6 6 5 4 8 4 5 5 7 5 5 4 4 4 4 5 5 5 5 6 7 6 6 8 9 9 9 9 8 8 7 7 8 9 4 4 6 6 6 7 7 7 6 6 6 7 7 8 8 8 9 8 8 7 6 6 6 6 5 5 5 5 5 6 5 5 5 5
3 0 3 4 2 3 3 3 3 4 4 4 2 5 5 5 5 6 4 6 5 5 5 7 7 5 5 7 5 4 4 3 3 4 5 4 4 5 6 4 4 6 7 8 8 8 9 8 8 8 8 7 6 5 6 6 6 6 7 7 6 6 6 6 6 6 7 5 5 6 7 6 6 6 6 5 5 5 4 5 5 5 6 5 5 5 5
2 2 1 2 2 2 1 1 2 4 5 6 6 4 4 5 5 5 5 6 6 4 7 5 7 5 3 7 5 4 3 3 2 3 4 3 4 4 4 4 5 6 7 6 6 7 6 5 5 6 7 6 5 5 6 5 5 6 6 6 6 6 6 6 5 5 6 8 6 5 6 6 6 6 5 5 5 4 2 1 3 4 4 4 4 5 5
0 1 1 1 2 4 5 4 3 1 2 5 5 5 5 5 7 6 6 4 4 5 6 4 7 6 3 4 5 5 3 3 3 2 3 3 3 3 5 4 5 5 5 6 5 5 4 4 4 6 6 6 6 6 5 5 5 6 5 5 6 6 5 5 5 5 5 4 4 5 6 6 6 6 4 3 3 4 4 2 2 1 3 4 4 4 4
2 6 6 4 5 1 1 0 1 3 1 6 6 5 7 5 6 6 8 7 6 7 5 5 7 7 4 2 4 5 3 2 2 2 2 4 4 4 4 5 4 4 4 5 4 4 3 3 4 5 5 5 5 6 5 5 5 5 4 5 5 6 5 5 4 4 4 4 4 4 5 5 5 6 9 9 6 3 3 8 8 3 1 3 5 5 5
5 7 6 4 3 4 3 4 2 2 2 5 8 6 6 4 4 6 9 8 7 6 5 3 6 6 6 4 4 6 4 3 2 1 1 4 5 4 4 6 5 5 3 3 4 4 2 3 4 4 5 5 5 6 5 5 5 5 5 5 5 4 5 5 4 4 4 5 4 5 5 5 5 6 5 6 10 10 9 9 8 12 13 12 11 7 5
1 3 9 7 5 7 4 3 2 3 3 8 7 4 3 5 5 6 7 6 8 5 5 6 5 6 6 3 6 7 4 3 4 5 5 5 5 5 4 5 5 4 3 3 3 3 1 2 4 3 4 4 5 5 5 5 5 5 5 5 5 4 4 4 4 4 4 5 4 4 4 4 4 4 5 6 7 11 12 10 11 13 13 13 12 12 10
1 3 7 3 4 5 4 3 2 2 1 5 9 5 5 6 5 6 8 6 4 7 7 6 5 4 6 5 5 6 5 3 3 4 5 5 6 6 5 5 4 4 3 3 2 2 2 3 3 3 4 4 4 4 4 4 5 5 4 3 4 4 3 3 4 4 4 4 4 4 4 4 4 4 4 5 6 5 5 8 11 13 13 12 12 11 11
4 9 6 4 4 6 5 5 4 2 3 6 8 4 5 7 8 8 7 7 6 6 7 6 7 5 5 6 5 5 6 6 4 4 5 5 5 5 4 4 3 2 3 3 2 2 2 2 2 2 3 4 4 4 3 4 5 5 4 4 3 2 2 2 3 4 4 4 4 4 3 3 4 4 3 3 4 5 5 4 6 7 10 12 10 11 12
5 9 12 10 7 2 3 7 7 4 4 5 10 8 6 8 10 8 6 7 6 6 7 7 6 5 5 4 5 5 5 3 5 6 5 6 5 3 2 1 2 2 3 3 2 1 2 1 1 1 2 3 4 4 3 4 5 5 5 4 4 4 4 4 3 3 3 4 3 3 3 3 3 3 3 3 3 3 3 4 4 4 3 4 7 9 6
9 8 10 12 9 10 7 2 6 7 7 9 10 10 7 7 9 10 10 9 8 7 6 5 7 8 7 5 6 7 7 8 6 4 5 5 3 2 3 3 3 2 2 2 1 1 1 2 1 1 1 3 4 3 3 3 4 4 4 5 4 4 3 3 3 3 2 3 3 3 3 3 2 3 3 3 3 3 3 3 3 4 2 2 2 3 7
7 4 3 2 6 8 6 7 8 8 6 4 7 8 8 10 8 9 8 7 6 6 7 6 5 6 7 5 6 7 6 6 6 5 4 4 4 4 4 4 4 4 3 2 2 2 2 1 1 0 1 2 3 3 2 3 3 3 3 4 4 4 3 2 2 3 3 3 3 3 3 2 3 3 3 3 3 3 3 3 3 2 2 2 1 1 2
3 1 5 8 11 12 12 8 9 7 9 8 9 6 8 11 9 6 6 5 6 8 5 5 7 5 5 6 5 5 6 5 4 3 4 3 3 4 4 4 4 4 4 3 3 3 3 2 2 4 3 2 3 2 1 2 3 3 3 2 3 3 3 3 3 3 4 3 3 3 3 3 3 3 2 2 3 3 3 3 4 3 4 3 3 3 4
3 3 7 8 9 9 13 10 8 8 8 6 8 7 4 7 9 7 6 5 5 6 4 6 7 6 5 6 4 4 4 4 4 5 5 5 5 4 4 3 2 1 1 2 4 4 4 4 3 4 4 3 2 1 2 1 1 2 3 3 2 2 2 4 4 3 3 2 2 2 2 2 2 2 2 2 2 3 4 3 4 3 3 3 3 3 3
9 6 7 7 8 8 7 6 8 8 8 7 8 8 8 9 8 7 5 5 6 7 7 7 7 7 5 4 4 5 5 5 5 4 4 5 5 5 4 5 2 2 1 2 3 3 3 4 5 5 5 5 3 1 2 2 2 2 2 2 3 2 1 1 2 2 1 1 1 1 1 1 1 2 1 1 1 2 3 4 4 3 4 4 4 4 3
10 7 4 4 4 5 7 5 10 8 8 9 9 8 6 5 8 7 6 6 5 3 6 6 6 6 5 5 5 6 6 5 5 4 5 4 4 4 3 2 1 2 1 1 2 2 2 3 4 5 5 5 4 3 1 2 2 1 1 2 2 2 1 1 1 2 1 1 1 1 1 1 1 1 1 1 1 2 2 3 3 3 3 3 3 3 4
13 12 13 13 14 12 11 9 6 9 5 3 4 6 6 6 7 7 6 5 6 6 6 5 5 4 5 6 5 5 5 5 5 4 2 2 3 3 3 2 0 1 3 5 5 4 4 4 4 5 4 5 5 4 2 0 1 1 1 1 1 2 2 2 1 0 0 1 2 1 2 2 2 2 2 1 1 3 2 3 3 3 3 2 2 2 1
10 6 7 11 9 10 11 13 10 8 9 7 4 4 4 5 6 7 6 7 7 6 5 5 5 5 5 6 5 4 5 6 5 3 2 1 1 2 1 1 2 2 2 2 2 4 4 4 4 4 4 3 3 3 3 3 2 2 1 1 2 2 1 1 0 1 1 2 2 2 2 2 2 2 2 2 2 3 2 2 3 3 3 3 2 2 2
5 5 5 4 4 5 6 8 10 12 11 10 9 9 7 7 6 7 7 5 3 6 6 6 5 5 5 5 5 5 5 4 4 3 2 2 2 1 3 4 2 2 2 4 2 3 4 3 4 3 1 2 2 2 2 2 1 1 1 1 1 0 1 1 1 1 1 1 2 2 2 3 2 2 2 3 3 3 4 3 3 3 2 2 3 3 3
5 8 8 7 5 6 8 8 8 9 8 8 8 6 6 5 6 4 4 6 6 6 6 6 6 6 5 4 4 4 4 4 3 2 1 1 1 4 5 4 4 2 2 3 3 5 5 3 4 1 3 2 2 1 2 2 2 1 1 1 0 0 1 2 2 2 2 1 2 3 3 3 3 2 1 2 2 3 3 4 3 3 3 3 4 4 4
5 7 9 9 8 8 8 8 7 8 7 5 4 4 8 8 6 6 6 6 6 6 4 5 6 6 5 4 4 5 3 2 2 2 3 3 3 4 3 4 2 3 3 1 4 4 3 3 3 2 2 1 1 1 2 4 3 2 2 0 2 3 3 4 4 4 4 4 2 2 3 3 4 4 3 1 1 1 1 2 2 3 4 4 3 4 4
4 3 4 4 6 7 6 4 4 6 10 11 6 5 4 6 7 7 7 6 5 5 7 7 7 7 6 6 4 3 3 2 1 3 3 3 2 2 0 0 1 2 0 3 3 3 4 3 2 2 3 3 3 3 4 7 2 2 1 1 1 1 2 2 3 4 4 4 4 4 4 3 3 3 4 3 0 1 2 3 2 2 3 3 2 2 2
7 8 9 8 7 6 7 7 7 7 4 6 11 9 8 8 7 8 7 7 4 4 7 7 7 6 5 5 5 4 3 2 1 1 2 3 3 2 3 4 4 4 3 3 2 3 5 7 5 4 3 3 3 3 3 5 5 1 1 1 2 2 2 2 3 4 4 4 4 5 4 3 3 3 3 4 3 3 3 3 4 5 6 6 5 5 5
9 8 7 8 8 7 8 8 7 5 5 4 4 7 8 9 8 8 7 7 5 5 7 6 6 5 5 6 5 5 3 1 1 1 2 1 1 2 1 3 3 3 3 3 3 4 5 4 4 3 3 3 3 4 3 3 2 1 1 0 1 2 2 2 3 3 4 4 4 4 4 3 3 3 3 2 2 2 3 4 5 5 6 5 5 5 5
8 8 8 8 8 8 7 6 7 6 4 4 6 7 7 8 9 9 7 6 5 5 5 4 6 7 6 5 4 3 1 1 2 1 2 1 1 1 0 3 3 2 3 3 4 4 4 3 3 2 2 3 3 5 5 2 1 0 1 1 2 2 2 2 3 2 2 2 2 2 1 1 2 3 2 2 2 2 3 3 3 3 4 5 4 4 5
9 10 9 9 8 7 8 9 9 9 8 6 7 7 8 6 7 7 6 6 6 5 5 4 3 4 5 5 5 3 1 1 1 2 1 3 4 4 3 3 2 3 3 4 3 3 3 2 3 2 4 4 2 2 1 0 1 1 1 2 1 1 2 2 1 1 1 1 1 1 1 2 2 2 2 2 2 2 2 3 3 3 3 3 5 4 5
9 9 9 9 8 8 8 8 7 8 9 7 6 7 8 7 7 8 7 7 6 5 6 5 5 5 5 5 4 2 1 1 0 0 1 2 3 3 5 3 3 1 3 2 2 2 2 2 2 4 6 5 4 3 1 1 1 1 1 2 2 2 2 2 2 2 3 3 2 3 2 2 2 2 2 2 2 2 2 2 2 3 4 4 4 4 4
10 9 9 10 10 9 8 9 11 11 9 9 7 7 7 8 6 7 8 7 7 6 5 5 5 5 4 4 4 4 4 3 3 4 1 1 1 4 1 4 2 3 3 3 2 2 2 2 4 6 5 5 4 4 3 2 1 1 1 1 1 1 2 2 2 2 2 2 1 2 2 2 2 2 2 2 2 3 3 3 4 4 4 4 4 4 4
8 7 8 9 10 10 9 8 7 9 11 10 8 5 5 7 7 6 6 7 6 6 6 6 5 5 5 5 3 1 1 1 3 4 4 4 3 2 1 3 3 3 5 5 2 2 1 4 5 4 5 5 4 3 2 3 2 2 2 2 1 1 1 1 1 1 0 1 2 2 2 2 3 3 3 3 3 3 3 3 3 4 4 4 4 4 4
9 8 8 8 7 7 8 8 9 10 10 10 9 8 6 6 7 7 6 6 6 6 5 5 5 4 5 5 5 4 3 1 1 2 3 3 3 2 3 4 5 5 4 3 2 1 1 2 2 3 3 4 4 3 3 3 3 3 3 2 2 2 2 1 1 0 1 1 1 1 2 3 3 3 3 3 3 3 3 3 3 3 3 3 3 4 4
10 9 8 9 10 9 9 10 11 11 11 11 10 8 7 7 7 6 6 5 5 4 4 3 3 3 4 4 4 4 5 5 3 3 3 2 1 3 4 4 3 4 5 3 3 2 2 3 3 3 4 4 3 3 3 3 3 3 3 3 3 2 2 1 1 2 2 2 2 1 1 2 2 2 3 3 3 2 3 3 3 4 3 4 4 4 5
8 9 8 8 10 11 11 10 9 9 8 7 7 7 7 7 6 5 5 4 4 3 4 4 3 3 3 4 4 4 4 4 4 2 3 4 4 4 4 4 6 6 4 2 2 1 0 3 3 2 4 3 3 2 2 2 2 2 2 2 1 2 2 3 3 2 2 2 2 2 2 2 2 2 2 3 3 3 3 4 3 4 4 4 4 4 4
8 9 9 9 9 9 10 9 8 8 7 7 8 7 7 7 6 6 5 5 5 4 4 4 4 4 3 4 4 4 5 4 3 1 3 5 5 4 4 4 3 5 4 3 2 0 1 2 2 2 2 2 2 2 2 3 3 2 3 3 3 2 2 2 2 2 2 2 1 0 0 0 1 2 2 3 3 3 3 4 4 5 7 5 4 4 4
8 9 9 9 8 7 6 6 7 8 7 7 7 7 7 8 7 6 6 6 5 4 4 4 2 2 4 4 3 4 4 4 4 4 5 5 4 4 4 4 2 3 3 3 2 3 2 1 1 0 0 1 1 0 0 0 0 1 1 1 2 2 2 2 2 3 3 2 1 1 2 1 2 3 3 3 3 3 3 4 4 5 5 5 5 4 4
6 6 6 7 7 7 7 8 9 9 9 8 7 7 7 6 6 6 5 6 6 5 5 3 2 2 2 3 4 4 4 4 4 4 4 5 4 4 4 5 3 3 3 3 3 3 3 3 2 2 2 2 1 1 2 1 1 0 1 1 1 1 1 1 2 2 3 3 2 1 2 2 3 3 3 3 3 4 5 5 5 5 4 4 4 4 4
Wind_Direction
203 55 24 2 348 9 21 56 45 41 27 43 59 7 246 274 168 199 173 139 104 64 35 20 30 41 49 57 53 63 98 98 103 111 120 115 104 99 97 101 129 172 182 186 189 189 193 189 190 192 191 195 199 207 205 197 188 191 181 179 183 186 189 198 204 201 199 201 199 195 195 194 201 207 207 206 204 203 204 209 209 212 209 206 204 207 215
44 64 72 342 359 331 358 36 48 47 48 51 63 63 66 103 93 105 108 92 73 48 31 21 23 32 50 52 56 81 89 97 111 118 126 119 120 130 134 135 145 151 163 170 179 183 189 189 188 186 187 188 190 192 195 189 196 192 174 187 187 188 193 200 201 196 194 195 195 194 195 198 203 205 209 208 205 205 210 211 215 213 214 210 208 209 211
15 345 67 325 349 325 330 18 39 45 50 45 37 57 65 85 91 103 103 86 71 42 42 47 34 45 59 56 55 55 49 90 122 136 153 156 146 131 70 34 22 103 125 128 128 138 157 173 181 184 184 185 181 179 172 172 184 185 185 191 195 194 201 201 196 190 189 196 192 201 205 205 204 204 209 211 214 218 219 219 219 217 209 208 211 211 214
340 317 43 283 308 295 317 2 21 19 24 56 25 50 24 45 96 113 95 71 63 38 60 58 56 53 50 50 50 51 55 47 50 78 93 132 141 152 129 75 65 86 126 134 139 144 148 150 158 164 169 170 168 178 175 180 175 162 175 193 199 200 195 167 188 195 195 189 199 212 212 220 217 214 208 210 219 223 226 225 226 216 215 217 217 213 214
174 216 160 264 284 248 247 333 351 14 25 49 72 50 44 27 334 72 68 85 47 74 63 69 59 61 60 56 45 38 40 47 57 64 61 49 51 119 162 172 151 170 168 148 146 141 141 150 154 163 153 151 165 156 129 96 102 117 109 88 38 56 148 168 174 176 178 193 205 209 217 222 224 218 213 216 222 223 228 228 218 218 223 217 222 217 213
185 172 183 203 137 32 256 246 222 13 46 30 40 42 20 33 33 57 65 69 69 62 70 66 58 53 50 51 51 51 50 44 41 48 46 40 38 27 7 343 298 259 311 339 292 344 16 56 113 141 151 146 141 130 124 121 118 134 143 131 120 115 63 13 7 143 155 179 196 206 203 204 205 213 213 221 222 221 228 231 226 232 230 224 224 218 215
215 295 20 30 9 236 233 326 327 297 39 50 69 51 38 18 2 67 84 84 75 72 70 66 59 61 58 50 49 47 45 48 50 47 44 37 33 29 23 17 7 358 342 306 301 278 199 73 30 46 78 104 117 121 130 128 132 132 133 130 138 145 134 111 50 342 322 203 195 196 193 193 196 208 217 223 221 216 215 219 220 223 224 233 238 241 244
91 56 48 321 241 252 290 292 305 326 43 63 87 53 40 39 13 331 61 84 82 85 82 64 56 68 70 62 48 44 46 47 46 51 45 41 35 29 18 30 34 21 14 64 118 105 67 129 153 168 145 131 120 118 115 124 134 133 120 88 31 355 27 185 191 144 321 314 303 243 181 149 92 328 291 251 231 236 223 206 185 165 125 156 184 157 43
151 126 119 238 309 316 319 6 32 8 31 344 60 118 310 351 37 306 293 103 107 103 81 36 11 5 66 62 44 31 34 39 45 45 46 39 42 41 37 35 33 16 22 20 18 70 99 111 134 141 148 131 126 127 123 130 129 121 118 121 134 180 209 230 197 164 155 136 315 328 79 112 122 119 89 354 327 300 162 173 172 165 132 112 123 125 117
123 126 78 17 13 266 272 240 271 302 264 151 169 101 316 297 273 261 234 109 103 109 3 348 323 20 62 41 35 26 28 30 43 46 45 39 36 36 34 37 34 29 23 19 17 13 110 104 98 110 118 129 133 131 134 140 129 123 124 154 201 195 190 189 201 152 138 142 182 227 272 191 181 160 155 136 121 355 316 204 159 141 130 109 72 77 104
72 86 126 183 163 238 212 249 266 300 264 168 110 71 346 262 214 277 237 161 129 176 272 328 352 58 62 59 37 20 33 34 30 41 40 42 42 33 35 30 33 31 36 42 35 25 28 45 24 54 69 68 71 90 112 116 113 123 127 157 184 210 214 152 234 168 152 149 139 141 221 233 197 181 144 116 123 103 83 305 291 143 123 110 96 84 95
58 127 106 181 201 146 220 248 285 313 26 132 78 55 275 260 279 331 10 167 122 359 94 95 52 82 114 104 73 47 55 45 33 38 37 33 30 32 31 36 38 45 40 45 39 30 26 27 34 63 81 78 75 74 48 75 87 103 127 136 163 196 175 204 219 172 140 130 124 134 190 205 127 67 64 71 92 133 161 199 277 295 119 120 117 106 86
74 81 257 339 315 265 270 269 294 327 160 109 75 189 232 234 127 116 138 151 168 149 93 29 96 50 77 113 101 67 61 56 48 38 44 41 31 32 35 34 32 41 42 48 44 29 20 19 22 42 66 77 74 74 76 64 51 22 50 120 143 138 135 154 131 108 91 94 130 171 216 190 131 136 166 163 161 172 150 145 160 256 54 55 67 67 68
107 164 117 203 251 245 230 273 281 269 81 77 220 235 214 139 109 121 137 138 134 122 106 90 84 100 95 94 79 72 63 72 49 42 37 37 35 34 36 44 40 37 42 44 43 37 24 31 44 61 72 80 82 77 67 50 29 6 11 28 54 64 65 53 46 41 49 74 102 165 232 212 167 153 154 157 143 136 116 105 106 113 89 94 95 85 63
62 38 75 4 125 202 101 317 27 16 94 230 197 163 71 98 119 120 107 108 111 106 95 91 101 101 89 82 77 70 64 62 52 41 44 46 45 35 31 34 37 50 52 49 49 45 40 37 30 39 67 67 60 60 66 59 56 68 60 53 54 57 57 53 47 46 38 50 74 123 148 165 67 99 128 157 153 126 113 112 106 81 84 102 95 87 79
149 107 133 189 209 245 284 162 171 240 189 221 161 126 98 50 89 87 84 74 90 101 107 114 107 107 105 86 84 71 51 53 48 50 47 51 53 49 40 40 32 43 59 52 47 37 34 37 33 30 51 70 69 62 48 28 39 40 44 51 57 59 59 61 64 62 67 68 65 62 58 70 80 73 70 147 143 118 112 108 109 100 69 70 83 88 85
123 194 214 246 231 235 275 188 221 216 304 108 157 102 110 121 60 37 91 101 95 105 115 107 113 96 85 93 80 92 72 63 51 55 47 51 58 60 61 50 45 48 54 59 58 49 37 38 38 37 33 53 51 50 22 30 34 43 47 51 55 60 63 65 64 62 57 43 35 38 37 34 35 37 38 46 59 77 103 110 118 118 118 114 109 109 104
245 218 194 264 343 348 342 357 340 77 37 42 82 105 105 53 139 135 124 124 120 114 115 110 74 104 127 104 87 78 72 69 51 60 59 46 51 58 57 50 48 57 59 56 55 54 39 33 44 44 43 49 57 31 27 44 48 55 57 56 53 47 41 41 50 58 59 47 41 34 37 37 43 33 47 73 86 87 99 112 125 129 128 120 115 107 94
65 95 326 22 321 317 349 4 47 61 60 41 65 84 85 121 112 101 97 119 121 122 115 112 121 117 119 108 102 100 88 72 67 70 69 52 48 67 64 38 56 57 60 59 56 52 43 19 32 34 43 42 45 37 39 30 48 64 69 66 63 54 48 51 53 60 63 53 41 31 26 33 38 40 45 59 84 96 99 115 126 129 126 122 116 109 105
107 202 238 289 286 273 300 327 65 58 47 49 50 77 103 107 98 104 120 111 99 104 100 116 113 111 113 114 113 101 110 127 122 96 89 82 65 44 61 58 73 72 68 70 65 61 53 22 34 39 42 39 33 38 34 35 44 53 60 68 67 56 51 58 64 68 78 77 70 54 43 41 35 28 32 38 65 58 36 40 121 128 121 121 120 126 118
320 326 293 279 358 28 15 20 48 97 101 94 60 62 80 88 94 89 70 65 115 110 122 111 105 95 64 106 122 117 126 116 145 164 138 110 101 85 74 54 64 81 85 74 68 70 48 18 48 47 36 23 20 31 35 44 58 64 59 62 74 72 74 73 73 83 90 100 101 98 90 67 54 41 18 7 52 73 44 27 329 42 103 116 115 115 117
165 182 191 168 110 245 282 17 144 119 122 104 93 74 64 69 88 89 87 71 69 84 88 107 101 106 99 69 101 95 101 125 178 194 131 104 80 65 70 75 70 72 74 91 83 69 43 40 65 61 44 30 23 19 25 37 54 64 61 63 59 57 66 76 75 80 81 77 88 94 98 99 102 78 58 57 33 50 39 13 23 0 66 122 138 136 109
213 228 202 163 133 125 203 184 187 178 158 105 96 94 98 78 85 109 107 99 74 69 55 56 108 112 106 102 92 79 72 65 107 133 101 107 102 84 83 84 60 68 60 80 88 76 39 37 55 52 49 30 31 25 28 32 54 56 49 47 49 59 65 71 87 90 93 93 87 89 90 103 104 105 99 67 55 54 64 63 54 54 59 67 72 64 97
250 183 156 166 148 157 190 214 189 142 150 110 97 94 97 106 106 99 93 101 111 93 78 59 69 110 104 98 94 94 62 60 90 95 97 100 107 105 91 110 113 98 83 80 96 110 60 64 65 61 59 32 23 18 28 36 46 57 53 64 48 34 67 86 85 84 77 93 94 91 82 75 80 93 96 88 54 36 38 48 57 63 62 61 62 69 75
125 175 145 157 135 114 98 128 130 126 117 116 115 121 120 100 76 91 96 87 83 108 102 81 39 47 92 78 86 95 97 73 88 106 108 110 112 110 116 108 117 130 136 132 114 94 74 76 59 51 59 25 14 27 33 39 55 54 34 65 71 39 28 65 78 91 94 91 88 93 97 94 79 76 89 103 100 85 43 55 70 70 64 64 66 64 66
134 111 102 93 88 111 120 85 51 78 101 112 102 100 97 104 108 89 85 94 89 87 96 94 81 38 65 78 60 61 61 51 61 69 68 81 86 94 114 143 161 137 121 118 121 97 84 70 58 38 37 18 10 357 10 71 71 65 60 56 74 51 77 67 94 92 95 101 103 101 96 100 114 101 89 87 106 114 108 97 69 63 66 60 65 79 67
114 125 105 83 93 106 205 146 164 182 126 102 109 108 101 97 92 92 86 76 78 78 87 91 92 82 62 65 83 73 80 64 48 49 63 65 62 50 18 40 107 125 124 108 115 183 154 116 75 46 9 351 346 344 7 40 74 77 59 45 32 14 72 106 95 103 115 115 121 122 131 134 109 98 104 113 111 106 108 104 107 92 71 40 43 44 64
155 164 144 145 178 183 199 235 132 136 133 124 117 114 116 109 102 96 91 85 73 67 63 70 93 88 78 57 80 64 53 56 56 38 43 31 15 102 116 96 69 60 62 71 31 356 63 82 71 28 337 313 332 341 3 45 63 69 79 73 57 52 22 51 81 90 93 109 120 128 143 151 159 138 137 136 134 122 113 107 112 125 111 41 26 44 69
176 184 6 81 139 128 103 106 108 114 104 98 113 121 119 101 98 102 104 108 113 96 83 65 64 83 96 79 82 85 78 70 61 47 20 0 9 17 31 70 98 100 95 97 76 48 70 74 81 8 284 304 327 335 354 54 73 68 72 80 91 90 79 58 71 93 99 104 107 113 95 75 94 137 146 153 143 142 139 144 141 143 102 81 84 67 41
155 43 95 111 125 127 122 130 139 138 135 141 127 126 128 118 110 115 126 131 119 109 126 111 90 82 91 87 84 93 89 89 91 63 41 21 7 9 42 70 57 33 24 15 344 354 21 13 2 323 284 343 323 312 348 46 35 36 41 81 98 120 132 135 102 101 104 101 84 82 77 74 75 84 112 142 166 162 164 166 174 155 151 183 176 146 170
91 100 120 126 130 141 141 149 145 145 141 139 131 119 104 113 123 127 131 133 115 120 135 117 115 107 98 109 109 93 92 79 61 52 36 18 9 8 3 23 81 45 345 304 304 331 335 333 315 277 283 277 259 221 186 96 69 13 356 347 49 102 153 144 131 132 122 119 90 108 88 80 62 68 88 99 135 159 173 185 172 164 169 178 190 188 183
102 98 116 136 142 130 120 133 138 147 152 148 132 140 152 137 140 146 154 141 148 141 135 123 122 126 140 141 127 116 106 90 69 54 40 31 19 360 0 1 15 66 356 325 351 338 343 335 322 298 290 292 277 198 159 157 127 136 258 292 309 354 19 143 125 138 153 137 125 103 112 111 90 117 70 67 88 148 157 170 175 169 176 175 201 197 155
113 98 101 116 98 124 143 172 151 159 155 166 172 160 164 155 145 150 158 150 128 129 124 131 140 142 138 129 108 99 96 96 81 62 40 20 352 349 336 357 2 322 307 281 311 329 302 305 294 312 321 316 318 306 171 134 142 167 288 282 302 319 348 129 146 148 185 128 106 146 62 80 108 75 134 146 164 155 159 154 165 175 176 186 188 178 169
159 175 182 179 166 168 171 189 185 161 167 135 140 154 151 157 152 151 150 150 141 143 143 154 156 139 117 103 105 106 105 83 70 55 23 357 343 337 328 323 28 349 309 328 336 327 321 292 306 321 330 335 328 326 298 335 129 128 146 149 25 1 346 9 6 47 198 215 174 212 161 171 178 206 237 220 176 167 172 158 156 147 139 135 145 148 115
175 170 167 178 180 173 167 160 166 165 157 149 154 182 169 158 156 158 159 153 159 170 157 133 130 123 107 92 82 82 95 123 144 139 135 60 348 327 294 67 38 20 350 325 315 307 302 296 286 294 310 322 330 322 298 245 243 206 162 155 162 164 156 142 127 10 354 347 7 347 322 299 262 253 238 225 219 204 198 187 160 154 151 149 148 137 125
115 105 116 133 129 132 148 160 162 164 165 166 170 169 172 173 159 155 165 173 150 121 128 126 124 104 94 100 108 116 119 132 138 133 105 68 355 3 81 73 69 53 347 335 334 315 312 283 294 283 245 309 14 12 353 317 1 278 233 160 193 116 144 150 177 181 197 183 279 271 280 265 272 244 233 202 198 197 199 194 180 170 154 146 144 132 115
155 148 158 157 154 147 151 160 161 159 163 161 157 155 158 169 170 151 121 122 131 136 134 128 106 102 113 123 127 115 116 137 134 115 94 356 95 84 77 79 65 71 60 5 295 313 314 303 302 201 133 137 145 215 253 198 162 208 65 99 68 86 342 329 324 302 279 241 256 268 278 286 277 263 256 191 192 211 196 182 183 166 158 151 148 140 131
170 156 156 159 160 156 165 172 168 155 139 134 145 163 168 157 150 139 135 132 134 138 133 114 119 124 120 109 100 111 121 114 109 89 47 35 33 71 46 72 94 110 81 328 306 322 301 324 3 17 12 35 354 326 295 241 190 140 152 297 319 333 334 336 328 327 314 317 312 294 287 276 281 282 283 46 105 123 202 215 181 164 159 151 139 142 147
115 101 118 135 143 146 136 129 142 156 156 157 154 125 123 130 132 126 124 129 138 131 111 113 118 114 119 116 119 121 139 149 110 76 67 31 24 71 52 275 199 202 225 284 323 313 338 5 1 6 19 356 352 346 342 334 5 106 45 69 18 16 331 329 311 299 297 305 333 319 304 291 276 282 290 293 309 122 144 175 167 115 97 84 86 95 98
156 157 155 147 150 151 145 154 163 171 177 160 151 152 153 139 138 128 126 127 147 135 125 131 124 126 135 138 144 162 183 191 167 108 90 79 51 16 340 312 269 258 252 284 326 0 31 34 37 19 7 5 6 357 4 357 3 37 47 337 304 313 298 293 285 286 288 294 290 289 280 258 253 243 241 235 223 197 169 139 116 118 127 134 136 142 137
165 155 155 155 157 159 158 156 167 172 155 153 141 137 146 141 136 127 135 140 145 129 134 135 127 139 153 163 173 182 203 188 116 112 141 101 53 56 351 284 275 284 320 359 39 35 43 37 33 22 353 4 360 352 350 349 12 57 53 183 236 240 249 255 255 264 268 278 269 266 262 255 245 243 242 238 208 169 135 131 139 148 153 151 149 157 159
166 155 153 153 156 165 166 155 135 124 121 130 136 138 140 142 137 141 146 133 133 137 134 145 149 158 171 159 154 134 93 45 70 61 207 191 217 156 31 277 271 295 320 44 58 41 33 23 22 31 15 351 345 335 337 347 38 148 157 210 210 219 225 238 249 260 257 235 229 227 231 223 222 232 218 145 167 153 141 133 139 140 131 135 142 152 151
156 159 161 162 161 157 150 153 159 152 141 144 148 145 139 128 117 118 124 131 132 132 127 140 137 124 126 134 133 142 191 353 26 354 267 265 221 198 186 236 280 309 26 65 49 55 24 3 355 335 332 328 299 327 357 354 170 169 206 219 222 217 218 223 226 215 188 173 170 178 165 159 173 182 174 177 184 163 143 147 149 138 134 133 132 136 130
163 160 158 155 160 160 152 146 138 136 139 150 152 141 134 132 136 137 140 141 142 147 144 148 141 146 141 141 134 150 233 225 160 60 74 345 337 272 221 241 269 276 77 77 48 75 11 342 322 333 342 357 12 63 80 99 136 194 220 232 229 238 230 240 247 229 215 220 224 211 203 197 185 179 167 159 159 148 140 121 123 125 125 119 138 135 131
164 164 163 161 152 146 151 152 156 160 153 139 137 139 138 138 143 147 145 151 155 163 156 155 159 159 158 158 174 195 197 180 170 144 146 246 303 292 258 209 178 128 113 98 78 37 347 336 352 11 19 22 49 59 58 72 106 147 182 198 206 216 230 234 227 228 215 204 208 207 217 219 208 191 194 186 169 165 170 164 166 167 157 151 157 160 160
157 156 149 143 152 165 165 152 134 123 128 131 129 136 144 148 150 154 156 154 157 167 170 168 167 177 173 184 187 116 88 196 224 211 213 190 204 241 236 129 155 142 114 104 63 53 328 344 11 25 22 35 34 50 36 34 41 40 61 61 63 35 10 331 4 43 138 176 190 190 203 199 192 209 201 201 210 199 187 177 156 157 165 168 170 163 153
148 147 155 152 144 134 129 131 134 131 130 134 145 161 171 163 158 161 167 165 161 167 171 176 184 187 179 167 161 153 153 209 299 246 228 228 255 245 175 143 129 120 102 88 79 87 253 342 20 40 45 47 55 51 43 53 52 54 41 47 41 43 43 41 29 253 43 181 203 214 209 200 213 211 206 204 200 188 173 156 146 159 148 137 132 131 138
153 153 150 145 142 140 133 136 141 148 157 163 164 161 161 164 163 163 161 157 158 155 152 153 169 174 175 190 202 193 178 164 193 273 236 212 102 112 105 115 139 136 119 99 83 20 48 72 71 70 72 64 57 58 54 57 66 59 81 59 63 41 42 340 38 359 346 330 329 46 30 226 238 203 191 180 166 156 146 147 144 140 144 144 149 154 153
153 149 142 137 140 147 151 154 155 158 163 151 144 152 156 155 152 150 157 157 142 145 165 179 198 222 217 214 201 208 200 185 161 203 216 160 143 148 162 153 149 138 120 131 118 286 85 118 106 81 70 61 50 33 35 25 37 25 18 25 19 34 18 16 360 350 345 319 284 286 256 234 203 178 162 145 141 141 140 138 143 148 148 153 154 164 168
134 131 139 150 155 161 163 160 163 160 149 147 149 148 151 142 146 178 175 166 176 171 165 193 220 231 224 233 243 196 175 179 184 198 136 134 143 154 155 150 153 153 146 144 165 217 327 54 56 63 66 25 31 38 27 26 7 11 355 360 12 32 343 349 348 353 332 326 313 152 334 26 106 123 114 107 117 128 134 144 146 146 146 146 159 165 171
154 163 170 170 165 159 154 151 149 141 146 150 151 152 152 159 168 170 174 171 158 159 183 216 231 214 223 219 203 168 162 168 162 148 127 140 154 164 165 171 179 165 154 156 171 206 226 202 229 21 74 84 10 28 255 274 298 311 337 311 329 17 354 356 353 354 345 349 341 40 96 110 128 118 133 147 137 134 139 146 151 164 176 181 177 184 181
148 138 125 122 123 128 128 129 133 143 145 145 150 155 160 161 160 166 174 171 164 179 173 161 239 277 202 174 163 160 162 158 151 140 144 151 161 167 184 187 193 214 194 177 196 216 208 229 245 224 195 188 176 293 321 356 80 265 253 240 294 309 303 295 318 340 341 5 16 16 110 136 161 158 156 158 157 160 170 178 182 182 185 183 177 172 182